QAEM 100 R/B, 61071

Orbit data source: Space-Track

QAEM 100 R/B, 61071 is space debris in LEO originally from a launch on Sat, 14 Sep 2024 UTC via a QAEM-100 launch vehicle from the Sharud Missile Test Site (SMTS). Debris objects in space refer to the collection of defunct objects orbiting the Earth. Examples of debris include non-operational satellites, rocket bodies, and fragments generated from explosions, collisions, or faulty payload assembly.

Loading next visibility...
QAEM 100 R/B details
Identifier
61071, 2024-165A
Orbit
LEO
Last TLE update8 hours ago
Origin
Flag of IRIRGC (IR / IRAN)
ManufacturerIRGC
MissionOperational spacecraft
Bus & MotorUnknown
Mass~200 kg wet, ~200 kg dry
Launch date (UTC)
2024-09-14 (3 months ago)
Launch vehicle
QAEM-100
Launch site
Sharud Missile Test Site (SMTS)
Object type
Payload
Rocket body
Debris
Shape & HBRUnknown
Radar Cross SectionMedium (>0.1 m² and <1 m²)

Expand to show TLE details & history

TLE from 8 hours ago
0 QAEM 100 R/B
1 61071U 24165A   24356.92413131  .00006795  00000-0  44152-3 0  9993
2 61071  64.0773  17.7499 0012833 312.9487  47.0550 15.08761741 14862
Epoch: 2024-12-21T22:10Z
Definitive object data (Epoch: 2024-12-21T22:10:44.945Z)
Latitude-0.00001°
Longitude-45.90569°
Altitude535.902 km
Speed7.599 km/s
True Right ascension01h 10m 59s
True Declination0° 00' 00"
Sunlit
Object was in daylight at TLE epoch
Visualization TLE readout
Latitude-35.17476°
Longitude-66.88558°
Altitude543.436 km
Speed7.595 km/s
Apparent Right ascension20h 44m 46s
Apparent Declination-50° 04' 06"
Sunlit
Object is in daylight
Visualization observer readout
Local Sidereal Time05:02:09
Azimuth236.127° WSW
Elevation-50.334°
Doppler factor1
Orbital elements
Apogee altitude547.505 km
Perigee altitude529.753 km
Semi-major axis6,916.766 km
Eccentricity0.0012833
Inclination64.0773°
RAAN17.7499°
Arg. of periapsis312.9487°
True anomaly47.16276°
Mean anomaly47.055°
Eccentric anomaly47.10887°
Mean motion3.77302 °/min
BSTAR0.00044152
Orbital period95.41 mins
Loading maneuver chart data...
Loading historical data...
Loading historical data...
Loading historical data...
Loading historical data...
Loading historical data...
Loading historical data...
Loading historical data...
Other satellites on launch #165 in the year 2024 (2024-09-14 UTC)

QAEM 100 R/B Visibility forecast

Observer location: undefined°, undefined

Span
Click to sort rows by Start time (UTC) header in descending order
Start Az.
Max El. time (UTC)
Max El. Az.
Max El.
End time (UTC)
End Az.
6 mins2024-12-22 11:25:29.085Z355.54° N2024-12-22 11:28:29.085Z52.947° ENE23.903°2024-12-22 11:31:29.085Z104.478° ESE
5 mins2024-12-22 13:04:29.085Z290.125° WNW2024-12-22 13:06:29.085Z246.031° WSW25.656°2024-12-22 13:09:29.085Z189.282° SSW
6 mins2024-12-23 02:57:29.085Z188.26° SSW2024-12-23 03:00:29.085Z102.467° ESE36.982°2024-12-23 03:03:29.085Z45.691° ENE
|